This demonstration page uses our WeatherBlox Daily Observations layout. Learn more.

38.89511, -77.03637

Hourly Observations for February 10, 2020

Temp ( °F °C ) Dew Point ( °F °C ) Humidity (%) Winds ( mph kmh ) Pressure ( in mb ) Visibility ( mi km ) Precip ( " mm )
12:52 am 00:52 Cloudy 44 6.7 33 0.6 65 65 S 18 30 30.31 1026 10 16.0934 0 0
1:52 am 01:52 Cloudy 44 6.7 33 0.6 65 65 S 17 28 30.27 1025 10 16.0934 0 0
2:52 am 02:52 Cloudy 45 7.2 32 0 61 61 S 13 20 30.27 1025 10 16.0934 0 0
3:52 am 03:52 Cloudy 46 7.8 31 -0.6 56 56 SSW 12 19 30.25 1024 10 16.0934 0 0
4:52 am 04:52 Cloudy 46 7.8 31 -0.6 56 56 SSW 18 30 30.23 1024 10 16.0934 0 0
5:52 am 05:52 Cloudy 46 7.8 31 -0.6 56 56 S 21 33 30.2 1023 10 16.0934 0 0
6:52 am 06:52 Cloudy with Light Rain 46 7.8 32 0 58 58 SSW 17 28 30.22 1024 10 16.0934 0.001 0.001
7:52 am 07:52 Cloudy with Light Rain 44 6.7 37 2.8 76 76 SSW 13 20 30.24 1024 6 9.65604 0.05 1.27
8:52 am 08:52 Cloudy with Light Rain 43 6.1 38 3.3 82 82 S 12 19 30.21 1023 10 16.0934 0.05 1.27
9:52 am 09:52 Cloudy with Light Rain 44 6.7 39 3.9 83 83 SSW 10 17 30.21 1023 10 16.0934 0.03 0.762
10:52 am 10:52 Cloudy with Light Rain 46 7.8 41 5 83 83 SSW 9 15 30.19 1023 10 16.0934 0.01 0.254
11:52 am 11:52 Cloudy with Light Rain 46 7.8 40 4.4 79 79 S 12 19 30.17 1022 10 16.0934 0.01 0.254
12:52 pm 12:52 Cloudy with Light Rain 47 8.3 41 5 80 80 S 7 11 30.16 1021 10 16.0934 0.01 0.254
1:52 pm 13:52 Cloudy with Light Rain 46 7.8 42 5.6 86 86 S 6 9 30.16 1021 5 8.0467 0.02 0.508
2:52 pm 14:52 Cloudy with Light Rain 47 8.3 44 6.7 90 90 SSW 9 15 30.14 1021 7 11.26538 0.09 2.286
3:52 pm 15:52 Cloudy with Light Rain 46 7.8 44 6.7 93 93 S 8 13 30.13 1020 10 16.0934 0.02 0.508
4:52 pm 16:52 Cloudy with Light Rain 48 8.9 45 7.2 89 89 S 9 15 30.14 1021 10 16.0934 0.01 0.254
5:52 pm 17:52 Cloudy with Light Rain 48 8.9 46 7.8 93 93 SSW 10 17 30.15 1021 6 9.65604 0.05 1.27
6:02 pm 18:02 Cloudy with Light Rain 48 8.9 46 7.8 93 93 S 10 17 30.16 1021 7 11.26538 0.02 0.508
6:09 pm 18:09 Cloudy with Light Rain 48 8.9 46 7.8 93 93 SSW 9 15 30.16 1021 7 11.26538 0.02 0.508
6:12 pm 18:12 Cloudy with Light Rain 48 8.9 46 7.8 93 93 SSW 10 17 30.16 1021 6 9.65604 0.02 0.508
6:52 pm 18:52 Cloudy with Light Rain 48 8.9 46 7.8 93 93 S 8 13 30.15 1021 8 12.87472 0.06 1.524
7:38 pm 19:38 Cloudy with Light Rain 47 8.3 46 7.8 97 97 S 18 30 30.11 1020 10 16.0934 0.01 0.254
7:52 pm 19:52 Cloudy 48 8.9 46 7.8 93 93 SW 12 19 30.14 1021 10 16.0934 0.01 0.254
8:14 pm 20:14 Cloudy 48 8.9 46 7.8 93 93 S 10 17 30.13 1020 10 16.0934 0 0
8:52 pm 20:52 Cloudy 49 9.4 47 8.3 93 93 SSW 8 13 30.14 1021 10 16.0934 0 0
9:52 pm 21:52 Cloudy 48 8.9 47 8.3 96 96 S 6 9 30.12 1020 9 14.48406 0 0
10:28 pm 22:28 Cloudy 48 8.9 47 8.3 96 96 S 7 11 30.11 1020 8 12.87472 0 0
10:52 pm 22:52 Cloudy 48 8.9 47 8.3 96 96 S 3 6 30.11 1020 8 12.87472 0 0
11:52 pm 23:52 Cloudy with Light Rain 48 8.9 47 8.3 96 96 S 7 11 30.09 1019 4 6.43736 0.001 0.001

Powered by AerisWeather